Weather Roundup
Issued by NWS Chicago, IL

Home | Current Version | Previous Version | Graphics & Text | Print | Product List | Glossary On
Versions: 1 2 3 4 5 6 7 8 9 10 11 12 13 14 15 16 17 18 19 20 21 22 23 24 25 26 27 28 29 30 31 32 33 34 35 36 37 38 39 40 41 42 43 44 45 46 47 48 49 50
000
NZUS59 KLOT 301000
HRRLOT

CHICAGO AREA WEATHER ROUNDUP
NATIONAL WEATHER SERVICE CHICAGO/ROMEOVILLE IL
500 AM CDT TUE JUN 30 2015

NOTE: "FAIR" INDICATES FEW OR NO CLOUDS BELOW 12,000 FEET WITH NO
SIGNIFICANT WEATHER AND/OR OBSTRUCTIONS TO VISIBILITY.

* THESE STATIONS ARE NOT UNDER NWS QUALITY CONTROL. THEY ALSO MAY NOT
  REPORT WEATHER SUCH AS PRECIPITATION OR FOG.

ILZ005-006-012>014-019>023-301100-
NORTHEAST ILLINOIS

CITY           SKY/WX    TMP DP  RH WIND       PRES   REMARKS
OHARE          MOCLDY    63  60  90 W6        29.77R
MIDWAY         CLOUDY    66  63  90 W7        29.77R FOG
AURORA         MOCLDY    60  57  89 W6        29.79S
WAUKEGAN       NOT AVBL
DUPAGE AIRPORT MOCLDY    61  59  93 NW6       29.77S
WHEELING       MOCLDY    63  59  87 NW6       29.78R
NORTHERLY IS     N/A     65  62  90 W5          N/A
$$

WIZ051-052-058>065-066-070>072-301100-
SOUTHEAST WISCONSIN

CITY           SKY/WX    TMP DP  RH WIND       PRES   REMARKS
MILWAUKEE      PTCLDY    63  58  83 W5        29.76S
KENOSHA*       PTCLDY    61  59  93 NW6       29.77S
RACINE*        MOCLDY    63  60  90 W6        29.78R FOG
$$

INZ001>003-010>013-019-020-301100-
NORTHWEST INDIANA

CITY           SKY/WX    TMP DP  RH WIND       PRES   REMARKS
GARY*          MOCLDY    64  64 100 CALM      29.77S FOG
MICHIGAN CITY* NOT AVBL
RENSSELAER*    NOT AVBL
VALPARAISO     MOCLDY    64  63  94 S3        29.78S FOG
$$

LMZ740>746-301100-
SOUTHERN LAKE MICHIGAN

STATION/POSITION TIME  SKY/WX   TEMP WIND        PRES    VSBY
                                AIR  DIR/SP/G
                 (UTC)          (F)  (DEG/KT/KT) (MB)    (MI)
HARRISON CRIB    0900            66  260/  7/  8   N/A
BURNHAM HARBOR   0900            66  260/  5/  8   N/A
CALUMET HARBOR   0900            65  190/  2/  3   N/A
BURNS HARBOR     0900            65  220/  3/  5 1008.8S
MICHIGAN CITY    0900            63  150/  5/  7   N/A
$$

ABBREVIATIONS USED IN REMARKS
   TC - TEMPERATURE IN CELSIUS
  WCI - WIND CHILL INDEX
   HX - HEAT INDEX
  VSB - VISIBILITY
$$


USA.gov is the U.S. government's official web portal to all federal, state and local government web resources and services.